START_TIME,STEP,MOV.,M6,t_acc.,M7,t_acc.,M19,t_acc.,H36,t_acc.
1979-08-07 00:00:25.630 ,0,0,0.,12.0,0.,12.0,0.,12.0,0.,12.0
1979-08-07 00:00:37.630 ,0,0,0.,12.0,0.,12.0,0.,12.0,0.,12.0
1979-08-07 00:00:49.630 ,1,1,0.,12.0,0.,12.0,0.,12.0,0.,12.0
1979-08-07 00:01:01.630 ,1,1,0.,12.0,0.,12.0,0.,12.0,0.,12.0
1979-08-07 00:01:13.630 ,1,0,0.,12.0,0.,12.0,0.,12.0,0.,12.0
1979-08-07 00:01:25.630 ,1,0,0.,12.0,0.,12.0,0.,12.0,0.,12.0
1979-08-07 00:01:37.630 ,2,1,0.,12.0,0.,12.0,0.,12.0,0.,12.0
1979-08-07 00:01:49.630 ,2,1,0.,12.0,0.,12.0,0.,12.0,0.,12.0
1979-08-07 00:02:01.630 ,2,0,0.,12.0,0.,12.0,0.,12.0,0.,12.0
1979-08-07 00:02:13.630 ,2,0,0.,12.0,0.,12.0,0.,12.0,0.,12.0
1979-08-07 00:02:25.630 ,3,1,0.,12.0,0.,12.0,0.,12.0,0.,12.0
1979-08-07 00:02:37.630 ,3,1,0.,12.0,0.,12.0,0.,12.0,0.,12.0
1979-08-07 00:02:49.630 ,3,0,0.,12.0,0.,12.0,0.,12.0,0.,12.0
1979-08-07 00:03:01.630 ,3,0,0.,12.0,0.,12.0,0.,12.0,0.,12.0
1979-08-07 00:03:13.630 ,4,1,0.,12.0,0.,12.0,0.,12.0,0.,12.0
1979-08-07 00:03:25.630 ,4,1,0.,12.0,0.,12.0,0.,12.0,0.,12.0
1979-08-07 00:03:37.630 ,4,0,0.,12.0,0.,12.0,0.,12.0,0.,12.0
1979-08-07 00:03:49.630 ,4,0,0.,12.0,0.,12.0,0.,12.0,0.,12.0
1979-08-07 00:04:01.630 ,5,1,0.,12.0,0.,12.0,0.,12.0,0.,12.0
1979-08-07 00:04:13.630 ,5,1,0.,12.0,0.,12.0,0.,12.0,0.,12.0
1979-08-07 00:04:25.630 ,5,0,0.,12.0,0.,12.0,0.,12.0,0.,12.0
1979-08-07 00:04:37.630 ,5,0,0.,12.0,0.,12.0,0.,12.0,0.,12.0
1979-08-07 00:04:49.630 ,6,1,0.,12.0,0.,12.0,0.,12.0,0.,12.0
1979-08-07 00:05:01.630 ,6,1,0.,12.0,0.,12.0,0.,12.0,0.,12.0
1979-08-07 00:05:13.630 ,6,0,0.,12.0,0.,12.0,0.,12.0,0.,12.0
1979-08-07 00:05:25.630 ,6,0,0.,12.0,0.,12.0,0.,12.0,0.,12.0
1979-08-07 00:05:37.630 ,7,1,0.,12.0,0.,12.0,0.,12.0,0.,12.0
1979-08-07 00:05:49.630 ,7,1,0.,12.0,0.,12.0,0.,12.0,0.,12.0
1979-08-07 00:06:01.630 ,7,0,0.,12.0,0.,12.0,0.,12.0,0.,12.0
1979-08-07 00:06:13.630 ,7,0,0.,12.0,0.,12.0,0.,12.0,0.,12.0
1979-08-07 00:06:25.630 ,7,1,0.,12.0,0.,12.0,0.,12.0,0.,12.0
1979-08-07 00:06:37.630 ,7,1,0.,12.0,0.,12.0,0.,12.0,0.,12.0
1979-08-07 00:06:49.630 ,7,0,0.,12.0,0.,12.0,0.,12.0,0.,12.0
1979-08-07 00:07:01.630 ,7,0,0.,12.0,0.,12.0,0.,12.0,0.,12.0
1979-08-07 00:07:13.630 ,6,1,0.,12.0,0.,12.0,0.,12.0,0.,12.0
1979-08-07 00:07:25.630 ,6,1,0.,12.0,0.,12.0,0.,12.0,0.,12.0
1979-08-07 00:07:37.630 ,6,0,0.,12.0,0.,12.0,0.,12.0,0.,12.0
1979-08-07 00:07:49.630 ,6,0,0.,12.0,0.,12.0,0.,12.0,0.,12.0
1979-08-07 00:08:01.630 ,5,1,0.,12.0,0.,12.0,0.,12.0,0.,12.0
1979-08-07 00:08:13.630 ,5,1,0.,12.0,0.,12.0,0.,12.0,0.,12.0
1979-08-07 00:08:25.630 ,5,0,0.,12.0,0.,12.0,0.,12.0,0.,12.0
1979-08-07 00:08:37.630 ,5,0,0.,12.0,0.,12.0,0.,12.0,0.,12.0
1979-08-07 00:08:49.630 ,4,1,0.,12.0,0.,12.0,0.,12.0,0.,12.0
1979-08-07 00:09:01.630 ,4,1,0.,12.0,0.,12.0,0.,12.0,0.,12.0
1979-08-07 00:09:13.630 ,4,0,0.,12.0,0.,12.0,0.,12.0,0.,12.0
1979-08-07 00:09:25.630 ,4,0,0.,12.0,0.,12.0,0.,12.0,0.,12.0
1979-08-07 00:09:37.630 ,3,1,0.,12.0,0.,12.0,0.,12.0,0.,12.0
1979-08-07 00:09:49.630 ,3,1,0.,12.0,0.,12.0,0.,12.0,0.,12.0
1979-08-07 00:10:01.630 ,3,0,0.,12.0,0.,12.0,0.,12.0,0.,12.0
1979-08-07 00:10:13.630 ,3,0,0.,12.0,0.,12.0,0.,12.0,0.,12.0
1979-08-07 00:10:25.630 ,2,1,0.,12.0,0.,12.0,0.,12.0,0.,12.0
1979-08-07 00:10:37.630 ,2,1,0.,12.0,0.,12.0,0.,12.0,0.,12.0
1979-08-07 00:10:49.630 ,2,0,0.,12.0,0.,12.0,0.,12.0,0.,12.0
1979-08-07 00:11:01.630 ,2,0,0.,12.0,0.,12.0,0.,12.0,0.,12.0
1979-08-07 00:11:13.630 ,1,1,0.,12.0,0.,12.0,0.,12.0,0.,12.0
1979-08-07 00:11:25.630 ,1,1,0.,12.0,0.,12.0,0.,12.0,0.,12.0
1979-08-07 00:11:37.630 ,1,0,0.,12.0,0.,12.0,0.,12.0,0.,12.0
1979-08-07 00:11:49.630 ,1,0,0.,12.0,0.,12.0,0.,12.0,0.,12.0
1979-08-07 00:12:01.630 ,0,1,0.,12.0,0.,12.0,0.,12.0,0.,12.0
1979-08-07 00:12:13.630 ,0,1,0.,12.0,0.,12.0,0.,12.0,0.,12.0
1979-08-07 00:12:25.630 ,0,0,0.,12.0,0.,12.0,0.,12.0,0.,12.0
1979-08-07 00:12:37.630 ,0,0,0.,12.0,0.,12.0,0.,12.0,0.,12.0
1979-08-07 00:12:49.630 ,0,1,0.,12.0,0.,12.0,0.,12.0,0.,12.0
1979-08-07 00:13:01.630 ,0,1,0.,12.0,0.,12.0,0.,12.0,0.,12.0
1979-08-07 00:13:13.630 ,0,0,0.,12.0,0.,12.0,0.,12.0,0.,12.0
1979-08-07 00:13:25.630 ,0,0,0.,12.0,0.,12.0,0.,12.0,0.,12.0
1979-08-07 00:13:37.630 ,1,1,0.,12.0,0.,12.0,0.,12.0,0.,12.0
1979-08-07 00:13:49.630 ,1,1,0.,12.0,0.,12.0,0.,12.0,0.,12.0
1979-08-07 00:14:01.630 ,1,0,0.,12.0,0.,12.0,0.,12.0,0.,12.0
1979-08-07 00:14:13.630 ,1,0,0.,12.0,0.,12.0,0.,12.0,0.,12.0
1979-08-07 00:14:25.630 ,2,1,0.,12.0,0.,12.0,0.,12.0,0.,12.0
1979-08-07 00:14:37.630 ,2,1,0.,12.0,0.,12.0,0.,12.0,0.,12.0
1979-08-07 00:14:49.630 ,2,0,0.,12.0,0.,12.0,0.,12.0,0.,12.0
1979-08-07 00:15:01.630 ,2,0,0.,12.0,0.,12.0,0.,12.0,0.,12.0
1979-08-07 00:15:13.630 ,3,1,0.,12.0,0.,12.0,0.,12.0,0.,12.0
1979-08-07 00:15:25.630 ,3,1,0.,12.0,0.,12.0,0.,12.0,0.,12.0
1979-08-07 00:15:37.630 ,3,0,0.,12.0,0.,12.0,0.,12.0,0.,12.0
1979-08-07 00:15:49.630 ,3,0,0.,12.0,0.,12.0,0.,12.0,0.,12.0
1979-08-07 00:16:01.630 ,4,1,0.,12.0,0.,12.0,0.,12.0,0.,12.0
1979-08-07 00:16:13.630 ,4,1,0.,12.0,0.,12.0,0.,12.0,0.,12.0
1979-08-07 00:16:25.630 ,4,0,0.,12.0,0.,12.0,0.,12.0,0.,12.0
1979-08-07 00:16:37.630 ,4,0,0.,12.0,0.,12.0,0.,12.0,0.,12.0
1979-08-07 00:16:49.630 ,5,1,0.,12.0,0.,12.0,0.,12.0,0.,12.0
1979-08-07 00:17:01.630 ,5,1,0.,12.0,0.,12.0,0.,12.0,0.,12.0
1979-08-07 00:17:13.630 ,5,0,0.,12.0,0.,12.0,0.,12.0,0.,12.0
1979-08-07 00:17:25.630 ,5,0,0.,12.0,0.,12.0,0.,12.0,0.,12.0
1979-08-07 00:17:37.630 ,6,1,0.,12.0,0.,12.0,0.,12.0,0.,12.0
1979-08-07 00:17:49.630 ,6,1,0.,12.0,0.,12.0,0.,12.0,0.,12.0
1979-08-07 00:18:01.630 ,6,0,0.,12.0,0.,12.0,0.,12.0,0.,12.0
1979-08-07 00:18:13.630 ,6,0,0.,12.0,0.,12.0,0.,12.0,0.,12.0
1979-08-07 00:18:25.630 ,7,0,0.,12.0,0.,12.0,0.,12.0,0.,12.0
1979-08-07 00:18:37.630 ,7,0,0.,12.0,0.,12.0,0.,12.0,0.,12.0
1979-08-07 00:18:49.630 ,7,0,0.,12.0,0.,12.0,0.,12.0,0.,12.0
1979-08-07 00:19:01.630 ,7,0,0.,12.0,0.,12.0,0.,12.0,0.,12.0
1979-08-07 00:19:13.630 ,4,1,1.,12.0,0.,12.0,0.,12.0,0.,12.0
1979-08-07 00:19:25.630 ,4,1,0.,12.0,0.,12.0,0.,12.0,0.,12.0
1979-08-07 00:19:37.630 ,0,0,0.,12.0,0.,12.0,0.,12.0,0.,12.0
1979-08-07 00:19:49.630 ,0,0,0.,12.0,0.,12.0,0.,12.0,0.,12.0
1979-08-07 00:20:08.230 ,0,0,,0,,0,,0,,0
1979-08-07 00:20:20.230 ,0,0,0.,12.0,0.,12.0,0.,12.0,0.,12.0
1979-08-07 00:20:25.630 ,7,1,0.,12.0,0.,12.0,0.,12.0,0.,12.0
1979-08-07 00:20:37.630 ,7,1,0.,12.0,0.,12.0,0.,12.0,0.,12.0
1979-08-07 00:20:49.630 ,4,1,0.,12.0,0.,12.0,0.,12.0,0.,12.0
1979-08-07 00:21:01.630 ,4,1,0.,12.0,0.,12.0,0.,12.0,0.,12.0
1979-08-07 00:21:13.630 ,0,0,0.,12.0,0.,12.0,0.,12.0,0.,12.0
1979-08-07 00:21:25.630 ,0,0,0.,12.0,0.,12.0,0.,12.0,0.,12.0
1979-08-07 00:21:13.630 ,0,1,0.,12.0,0.,12.0,0.,12.0,0.,12.0
1979-08-07 00:21:25.630 ,0,1,0.,12.0,0.,12.0,0.,12.0,0.,12.0
1979-08-07 00:21:37.630 ,3,1,0.,12.0,0.,12.0,0.,12.0,0.,12.0
1979-08-07 00:21:49.630 ,3,1,0.,12.0,0.,12.0,0.,12.0,0.,12.0
1979-08-07 00:22:01.630 ,7,1,0.,12.0,0.,12.0,0.,12.0,0.,12.0
1979-08-07 00:22:13.630 ,7,1,0.,12.0,0.,12.0,0.,12.0,0.,12.0
1979-08-07 00:22:25.630 ,4,1,0.,12.0,0.,12.0,0.,12.0,0.,12.0
1979-08-07 00:22:37.630 ,4,1,0.,12.0,0.,12.0,0.,12.0,0.,12.0
1979-08-07 00:22:49.630 ,0,1,0.,12.0,0.,12.0,0.,12.0,0.,12.0
1979-08-07 00:23:01.630 ,0,1,0.,12.0,0.,12.0,0.,12.0,0.,12.0
1979-08-07 00:23:13.630 ,3,1,0.,12.0,0.,12.0,0.,12.0,0.,12.0
1979-08-07 00:23:25.630 ,3,1,0.,12.0,0.,12.0,0.,12.0,0.,12.0
1979-08-07 00:23:37.630 ,7,1,0.,12.0,0.,12.0,0.,12.0,0.,12.0
1979-08-07 00:23:49.630 ,7,1,0.,12.0,0.,12.0,0.,12.0,0.,12.0
1979-08-07 00:24:01.630 ,4,1,0.,12.0,0.,12.0,0.,12.0,0.,12.0
1979-08-07 00:24:13.630 ,4,1,0.,12.0,0.,12.0,0.,12.0,0.,12.0
1979-08-07 00:24:25.630 ,0,1,0.,12.0,0.,12.0,0.,12.0,0.,12.0
1979-08-07 00:24:37.630 ,0,1,0.,12.0,0.,12.0,0.,12.0,0.,12.0
1979-08-07 00:24:49.630 ,3,1,0.,12.0,0.,12.0,0.,12.0,0.,12.0
1979-08-07 00:25:01.630 ,3,1,0.,12.0,0.,12.0,0.,12.0,0.,12.0
1979-08-07 00:25:13.630 ,7,1,0.,12.0,0.,12.0,0.,12.0,0.,12.0
1979-08-07 00:25:25.630 ,7,1,0.,12.0,0.,12.0,0.,12.0,0.,12.0
1979-08-07 00:25:37.630 ,4,1,0.,12.0,0.,12.0,0.,12.0,0.,12.0
1979-08-07 00:25:49.630 ,4,1,0.,12.0,0.,12.0,0.,12.0,0.,12.0
1979-08-07 00:26:01.630 ,0,1,0.,12.0,0.,12.0,0.,12.0,0.,12.0
1979-08-07 00:26:13.630 ,0,1,0.,12.0,0.,12.0,0.,12.0,0.,12.0
1979-08-07 00:26:25.630 ,3,1,0.,12.0,0.,12.0,0.,12.0,0.,12.0
1979-08-07 00:26:37.630 ,3,1,0.,12.0,0.,12.0,0.,12.0,0.,12.0
1979-08-07 00:26:49.630 ,7,1,0.,12.0,0.,12.0,0.,12.0,0.,12.0
1979-08-07 00:27:01.630 ,7,1,0.,12.0,0.,12.0,0.,12.0,0.,12.0
1979-08-07 00:27:13.630 ,4,1,0.,12.0,0.,12.0,0.,12.0,0.,12.0
1979-08-07 00:27:25.630 ,4,1,0.,12.0,0.,12.0,0.,12.0,0.,12.0
1979-08-07 00:27:37.630 ,0,1,0.,12.0,0.,12.0,0.,12.0,0.,12.0
1979-08-07 00:27:49.630 ,0,1,0.,12.0,0.,12.0,0.,12.0,0.,12.0
1979-08-07 00:28:01.630 ,3,1,0.,12.0,0.,12.0,0.,12.0,0.,12.0
1979-08-07 00:28:13.630 ,3,1,0.,12.0,0.,12.0,0.,12.0,0.,12.0
1979-08-07 00:28:25.630 ,7,1,0.,12.0,0.,12.0,0.,12.0,0.,12.0
1979-08-07 00:28:37.630 ,7,1,0.,12.0,0.,12.0,0.,12.0,0.,12.0
1979-08-07 00:28:49.630 ,4,1,0.,12.0,0.,12.0,0.,12.0,0.,12.0
1979-08-07 00:29:01.630 ,4,1,0.,12.0,0.,12.0,0.,12.0,0.,12.0
1979-08-07 00:29:13.630 ,0,1,0.,12.0,0.,12.0,0.,12.0,0.,12.0
1979-08-07 00:29:25.630 ,0,1,0.,12.0,0.,12.0,0.,12.0,0.,12.0
1979-08-07 00:29:37.630 ,0,0,0.,12.0,0.,12.0,0.,12.0,0.,12.0
1979-08-07 00:29:49.630 ,0,0,0.,12.0,0.,12.0,0.,12.0,0.,12.0
1979-08-07 00:30:01.630 ,0,0,0.,12.0,0.,12.0,0.,12.0,0.,12.0
1979-08-07 00:30:13.630 ,0,0,0.,12.0,0.,12.0,0.,12.0,0.,12.0
1979-08-07 00:30:25.630 ,5,1,0.,12.0,0.,12.0,0.,12.0,0.,12.0
1979-08-07 00:30:37.630 ,5,1,0.,12.0,0.,12.0,0.,12.0,0.,12.0
1979-08-07 00:30:49.630 ,5,0,0.,12.0,0.,12.0,0.,12.0,0.,12.0
1979-08-07 00:31:01.630 ,5,0,0.,12.0,0.,12.0,0.,12.0,0.,12.0
1979-08-07 00:31:13.630 ,4,1,0.,12.0,0.,12.0,0.,12.0,0.,12.0
1979-08-07 00:31:25.630 ,4,1,0.,12.0,0.,12.0,0.,12.0,0.,12.0
1979-08-07 00:31:37.630 ,4,0,0.,12.0,0.,12.0,0.,12.0,0.,12.0
1979-08-07 00:31:49.630 ,4,0,0.,12.0,0.,12.0,0.,12.0,0.,12.0
1979-08-07 00:32:01.630 ,3,1,0.,12.0,0.,12.0,0.,12.0,0.,12.0
1979-08-07 00:32:13.630 ,3,1,0.,12.0,0.,12.0,0.,12.0,0.,12.0
1979-08-07 00:32:25.630 ,3,0,0.,12.0,0.,12.0,0.,12.0,0.,12.0
1979-08-07 00:32:37.630 ,3,0,0.,12.0,0.,12.0,0.,12.0,0.,12.0
1979-08-07 00:32:49.630 ,2,1,0.,12.0,0.,12.0,0.,12.0,0.,12.0
1979-08-07 00:33:01.630 ,2,1,0.,12.0,0.,12.0,0.,12.0,0.,12.0
1979-08-07 00:33:13.630 ,2,0,0.,12.0,0.,12.0,0.,12.0,0.,12.0
1979-08-07 00:33:25.630 ,2,0,0.,12.0,0.,12.0,0.,12.0,0.,12.0
1979-08-07 00:33:37.630 ,1,1,0.,12.0,0.,12.0,0.,12.0,0.,12.0
1979-08-07 00:33:49.630 ,1,1,0.,12.0,0.,12.0,0.,12.0,0.,12.0
1979-08-07 00:34:01.630 ,1,0,0.,12.0,0.,12.0,0.,12.0,0.,12.0
1979-08-07 00:34:13.630 ,1,0,0.,12.0,0.,12.0,0.,12.0,0.,12.0
1979-08-07 00:34:25.630 ,0,1,0.,12.0,0.,12.0,0.,12.0,0.,12.0
1979-08-07 00:34:37.630 ,0,1,0.,12.0,0.,12.0,0.,12.0,0.,12.0
1979-08-07 00:34:49.630 ,0,0,0.,12.0,0.,12.0,0.,12.0,0.,12.0
1979-08-07 00:35:01.630 ,0,0,0.,12.0,0.,12.0,0.,12.0,0.,12.0
1979-08-07 00:35:13.630 ,0,1,0.,12.0,0.,12.0,0.,12.0,0.,12.0
1979-08-07 00:35:25.630 ,0,1,0.,12.0,0.,12.0,0.,12.0,0.,12.0
1979-08-07 00:35:37.630 ,0,0,0.,12.0,0.,12.0,0.,12.0,0.,12.0
1979-08-07 00:35:49.630 ,0,0,0.,12.0,0.,12.0,0.,12.0,0.,12.0
1979-08-07 00:36:01.630 ,1,1,0.,12.0,0.,12.0,0.,12.0,0.,12.0
1979-08-07 00:36:13.630 ,1,1,0.,12.0,0.,12.0,0.,12.0,0.,12.0
1979-08-07 00:36:25.630 ,1,0,0.,12.0,0.,12.0,0.,12.0,0.,12.0
1979-08-07 00:36:37.630 ,1,0,0.,12.0,0.,12.0,0.,12.0,0.,12.0
1979-08-07 00:36:49.630 ,2,1,0.,12.0,0.,12.0,0.,12.0,0.,12.0
1979-08-07 00:37:01.630 ,2,1,0.,12.0,0.,12.0,0.,12.0,0.,12.0
1979-08-07 00:37:13.630 ,2,0,0.,12.0,0.,12.0,0.,12.0,0.,12.0
1979-08-07 00:37:25.630 ,2,0,0.,12.0,0.,12.0,0.,12.0,0.,12.0
1979-08-07 00:37:37.630 ,3,1,0.,12.0,0.,12.0,0.,12.0,0.,12.0
1979-08-07 00:37:49.630 ,3,1,0.,12.0,0.,12.0,0.,12.0,0.,12.0
1979-08-07 00:38:01.630 ,3,0,0.,12.0,0.,12.0,0.,12.0,0.,12.0
1979-08-07 00:38:13.630 ,3,0,0.,12.0,0.,12.0,0.,12.0,0.,12.0
1979-08-07 00:38:25.630 ,4,1,0.,12.0,0.,12.0,0.,12.0,0.,12.0
1979-08-07 00:38:37.630 ,4,1,0.,12.0,0.,12.0,0.,12.0,0.,12.0
1979-08-07 00:38:49.630 ,4,0,0.,12.0,0.,12.0,0.,12.0,0.,12.0
1979-08-07 00:39:01.630 ,4,0,0.,12.0,0.,12.0,0.,12.0,0.,12.0
1979-08-07 00:39:13.630 ,5,1,0.,12.0,0.,12.0,0.,12.0,0.,12.0
1979-08-07 00:39:25.630 ,5,1,0.,12.0,0.,12.0,0.,12.0,0.,12.0
1979-08-07 00:39:37.630 ,5,0,0.,12.0,0.,12.0,0.,12.0,0.,12.0
1979-08-07 00:39:49.630 ,5,0,0.,12.0,0.,12.0,0.,12.0,0.,12.0
1979-08-07 00:40:01.630 ,6,1,0.,12.0,0.,12.0,0.,12.0,0.,12.0
1979-08-07 00:40:13.630 ,6,1,0.,12.0,0.,12.0,0.,12.0,0.,12.0
1979-08-07 00:40:25.630 ,6,0,0.,12.0,0.,12.0,0.,12.0,0.,12.0
1979-08-07 00:40:37.630 ,6,0,0.,12.0,0.,12.0,0.,12.0,0.,12.0
1979-08-07 00:40:49.630 ,7,1,0.,12.0,0.,12.0,0.,12.0,0.,12.0
1979-08-07 00:41:01.630 ,7,1,0.,12.0,0.,12.0,0.,12.0,0.,12.0
1979-08-07 00:41:13.630 ,7,0,0.,12.0,0.,12.0,0.,12.0,0.,12.0
1979-08-07 00:41:25.630 ,7,0,0.,12.0,0.,12.0,0.,12.0,0.,12.0
1979-08-07 00:41:37.630 ,7,1,0.,12.0,0.,12.0,0.,12.0,0.,12.0
1979-08-07 00:41:49.630 ,7,1,0.,12.0,0.,12.0,0.,12.0,0.,12.0
1979-08-07 00:42:01.630 ,7,0,0.,12.0,0.,12.0,0.,12.0,0.,12.0
1979-08-07 00:42:13.630 ,7,0,0.,12.0,0.,12.0,0.,12.0,0.,12.0
1979-08-07 00:42:25.630 ,6,1,0.,12.0,0.,12.0,0.,12.0,0.,12.0
1979-08-07 00:42:37.630 ,6,1,0.,12.0,0.,12.0,0.,12.0,0.,12.0
1979-08-07 00:42:49.630 ,6,0,0.,12.0,0.,12.0,0.,12.0,0.,12.0
1979-08-07 00:43:01.630 ,6,0,0.,12.0,0.,12.0,0.,12.0,0.,12.0
1979-08-07 00:43:13.630 ,5,1,0.,12.0,0.,12.0,0.,12.0,0.,12.0
1979-08-07 00:43:25.630 ,5,1,0.,12.0,0.,12.0,0.,12.0,0.,12.0
1979-08-07 00:43:37.630 ,5,0,0.,12.0,0.,12.0,0.,12.0,0.,12.0
1979-08-07 00:43:49.630 ,5,0,0.,12.0,0.,12.0,0.,12.0,0.,12.0
1979-08-07 00:44:01.630 ,4,1,0.,12.0,0.,12.0,0.,12.0,0.,12.0
1979-08-07 00:44:13.630 ,4,1,0.,12.0,0.,12.0,0.,12.0,0.,12.0
1979-08-07 00:44:25.630 ,4,0,0.,12.0,0.,12.0,0.,12.0,0.,12.0
1979-08-07 00:44:37.630 ,4,0,0.,12.0,0.,12.0,0.,12.0,0.,12.0
1979-08-07 00:44:49.630 ,3,1,0.,12.0,0.,12.0,0.,12.0,0.,12.0
1979-08-07 00:45:01.630 ,3,1,0.,12.0,0.,12.0,0.,12.0,0.,12.0
1979-08-07 00:45:13.630 ,3,0,0.,12.0,0.,12.0,0.,12.0,0.,12.0
1979-08-07 00:45:25.630 ,3,0,0.,12.0,0.,12.0,0.,12.0,0.,12.0
1979-08-07 00:45:37.630 ,2,1,0.,12.0,0.,12.0,0.,12.0,0.,12.0
1979-08-07 00:45:49.630 ,2,1,0.,12.0,0.,12.0,0.,12.0,0.,12.0
1979-08-07 00:46:01.630 ,2,0,0.,12.0,0.,12.0,0.,12.0,0.,12.0
1979-08-07 00:46:13.630 ,2,0,0.,12.0,0.,12.0,0.,12.0,0.,12.0
1979-08-07 00:46:25.630 ,1,1,0.,12.0,0.,12.0,0.,12.0,0.,12.0
1979-08-07 00:46:37.630 ,1,1,0.,12.0,0.,12.0,0.,12.0,0.,12.0
1979-08-07 00:46:49.630 ,1,0,0.,12.0,0.,12.0,0.,12.0,0.,12.0
1979-08-07 00:47:01.630 ,1,0,0.,12.0,0.,12.0,0.,12.0,0.,12.0
1979-08-07 00:47:13.630 ,0,1,0.,12.0,0.,12.0,0.,12.0,0.,12.0
1979-08-07 00:47:25.630 ,0,1,0.,12.0,0.,12.0,0.,12.0,0.,12.0
1979-08-07 00:47:37.630 ,0,0,0.,12.0,0.,12.0,0.,12.0,0.,12.0
1979-08-07 00:47:49.630 ,0,0,0.,12.0,0.,12.0,0.,12.0,0.,12.0
1979-08-07 00:48:01.630 ,0,1,0.,12.0,0.,12.0,0.,12.0,0.,12.0
1979-08-07 00:48:13.630 ,0,1,0.,12.0,0.,12.0,0.,12.0,0.,12.0
1979-08-07 00:48:25.630 ,0,0,0.,12.0,0.,12.0,0.,12.0,0.,12.0
1979-08-07 00:48:37.630 ,0,0,0.,12.0,0.,12.0,0.,12.0,0.,12.0
1979-08-07 00:48:49.630 ,1,1,0.,12.0,0.,12.0,0.,12.0,0.,12.0
1979-08-07 00:49:01.630 ,1,1,0.,12.0,0.,12.0,0.,12.0,0.,12.0
1979-08-07 00:49:13.630 ,1,0,0.,12.0,0.,12.0,0.,12.0,0.,12.0
1979-08-07 00:49:25.630 ,1,0,0.,12.0,0.,12.0,0.,12.0,0.,12.0
1979-08-07 00:49:37.630 ,2,1,0.,12.0,0.,12.0,0.,12.0,0.,12.0
1979-08-07 00:49:49.630 ,2,1,0.,12.0,0.,12.0,0.,12.0,0.,12.0
1979-08-07 00:50:01.630 ,2,0,0.,12.0,0.,12.0,0.,12.0,0.,12.0
1979-08-07 00:50:13.630 ,2,0,0.,12.0,0.,12.0,0.,12.0,0.,12.0
1979-08-07 00:50:25.630 ,3,1,0.,12.0,0.,12.0,0.,12.0,0.,12.0
1979-08-07 00:50:37.630 ,3,1,0.,12.0,0.,12.0,0.,12.0,0.,12.0
1979-08-07 00:50:49.630 ,3,0,0.,12.0,0.,12.0,0.,12.0,0.,12.0
1979-08-07 00:51:01.630 ,3,0,0.,12.0,0.,12.0,0.,12.0,0.,12.0
1979-08-07 00:51:13.630 ,4,1,0.,12.0,0.,12.0,0.,12.0,0.,12.0
1979-08-07 00:51:25.630 ,4,1,0.,12.0,0.,12.0,0.,12.0,0.,12.0
1979-08-07 00:51:37.630 ,4,0,0.,12.0,0.,12.0,0.,12.0,0.,12.0
1979-08-07 00:51:49.630 ,4,0,0.,12.0,0.,12.0,0.,12.0,0.,12.0
1979-08-07 00:52:01.630 ,5,1,0.,12.0,0.,12.0,0.,12.0,0.,12.0
1979-08-07 00:52:13.630 ,5,1,0.,12.0,0.,12.0,0.,12.0,0.,12.0
1979-08-07 00:52:25.630 ,5,0,0.,12.0,0.,12.0,0.,12.0,0.,12.0
1979-08-07 00:52:37.630 ,5,0,0.,12.0,0.,12.0,0.,12.0,0.,12.0
1979-08-07 00:52:49.630 ,6,1,0.,12.0,0.,12.0,0.,12.0,0.,12.0
1979-08-07 00:53:01.630 ,6,1,0.,12.0,0.,12.0,0.,12.0,0.,12.0
1979-08-07 00:53:13.630 ,6,0,0.,12.0,0.,12.0,0.,12.0,0.,12.0
1979-08-07 00:53:25.630 ,6,0,0.,12.0,0.,12.0,0.,12.0,0.,12.0
1979-08-07 00:53:37.630 ,7,1,0.,12.0,0.,12.0,0.,12.0,0.,12.0
1979-08-07 00:53:49.630 ,7,1,0.,12.0,0.,12.0,0.,12.0,0.,12.0
1979-08-07 00:54:01.630 ,7,0,0.,12.0,0.,12.0,0.,12.0,0.,12.0
1979-08-07 00:54:13.630 ,7,0,0.,12.0,0.,12.0,0.,12.0,0.,12.0
1979-08-07 00:54:25.630 ,7,1,0.,12.0,0.,12.0,0.,12.0,0.,12.0
1979-08-07 00:54:37.630 ,7,1,0.,12.0,0.,12.0,0.,12.0,0.,12.0
1979-08-07 00:54:49.630 ,7,0,0.,12.0,0.,12.0,0.,12.0,0.,12.0
1979-08-07 00:55:01.630 ,7,0,0.,12.0,0.,12.0,0.,12.0,0.,12.0
1979-08-07 00:55:13.630 ,6,1,0.,12.0,0.,12.0,0.,12.0,0.,12.0
1979-08-07 00:55:25.630 ,6,1,0.,12.0,0.,12.0,0.,12.0,0.,12.0
1979-08-07 00:55:37.630 ,6,0,0.,12.0,0.,12.0,0.,12.0,0.,12.0
1979-08-07 00:55:49.630 ,6,0,0.,12.0,0.,12.0,0.,12.0,0.,12.0
1979-08-07 00:56:01.630 ,5,1,0.,12.0,0.,12.0,0.,12.0,0.,12.0
1979-08-07 00:56:13.630 ,5,1,0.,12.0,0.,12.0,0.,12.0,0.,12.0
1979-08-07 00:56:25.630 ,5,0,0.,12.0,0.,12.0,0.,12.0,0.,12.0
1979-08-07 00:56:37.630 ,5,0,0.,12.0,0.,12.0,0.,12.0,0.,12.0
1979-08-07 00:56:49.630 ,4,1,0.,12.0,0.,12.0,0.,12.0,0.,12.0
1979-08-07 00:57:01.630 ,4,1,0.,12.0,0.,12.0,0.,12.0,0.,12.0
1979-08-07 00:57:13.630 ,4,0,0.,12.0,0.,12.0,0.,12.0,0.,12.0
1979-08-07 00:57:25.630 ,4,0,0.,12.0,0.,12.0,0.,12.0,0.,12.0
1979-08-07 00:57:37.630 ,3,1,0.,12.0,0.,12.0,0.,12.0,0.,12.0
1979-08-07 00:57:49.630 ,3,1,0.,12.0,0.,12.0,0.,12.0,0.,12.0
1979-08-07 00:58:01.630 ,3,0,0.,12.0,0.,12.0,0.,12.0,0.,12.0
1979-08-07 00:58:13.630 ,3,0,0.,12.0,0.,12.0,0.,12.0,0.,12.0
1979-08-07 00:58:25.630 ,2,1,0.,12.0,0.,12.0,0.,12.0,0.,12.0
1979-08-07 00:58:37.630 ,2,1,0.,12.0,0.,12.0,0.,12.0,0.,12.0
1979-08-07 00:58:49.630 ,2,0,0.,12.0,0.,12.0,0.,12.0,0.,12.0
1979-08-07 00:59:01.630 ,2,0,0.,12.0,0.,12.0,0.,12.0,0.,12.0
1979-08-07 00:59:13.630 ,1,1,0.,12.0,0.,12.0,0.,12.0,0.,12.0
1979-08-07 00:59:25.630 ,1,1,0.,12.0,0.,12.0,0.,12.0,0.,12.0
1979-08-07 00:59:37.630 ,1,0,0.,12.0,0.,12.0,0.,12.0,0.,12.0
1979-08-07 00:59:49.630 ,1,0,0.,12.0,0.,12.0,0.,12.0,0.,12.0
1979-08-07 01:00:01.630 ,0,1,0.,12.0,0.,12.0,0.,12.0,0.,12.0
1979-08-07 01:00:13.630 ,0,1,0.,12.0,0.,12.0,0.,12.0,0.,12.0
1979-08-07 01:00:25.630 ,0,0,0.,12.0,0.,12.0,0.,12.0,0.,12.0
1979-08-07 01:00:37.630 ,0,0,0.,12.0,0.,12.0,0.,12.0,0.,12.0
1979-08-07 01:00:49.630 ,0,1,0.,12.0,0.,12.0,0.,12.0,0.,12.0
1979-08-07 01:01:01.630 ,0,1,0.,12.0,0.,12.0,0.,12.0,0.,12.0
1979-08-07 01:01:13.630 ,0,0,0.,12.0,0.,12.0,0.,12.0,0.,12.0
1979-08-07 01:01:25.630 ,0,0,0.,12.0,0.,12.0,0.,12.0,0.,12.0
1979-08-07 01:01:37.630 ,1,1,0.,12.0,0.,12.0,0.,12.0,0.,12.0
1979-08-07 01:01:49.630 ,1,1,0.,12.0,0.,12.0,0.,12.0,0.,12.0
1979-08-07 01:02:01.630 ,1,0,0.,12.0,0.,12.0,0.,12.0,0.,12.0
1979-08-07 01:02:13.630 ,1,0,0.,12.0,0.,12.0,0.,12.0,0.,12.0
1979-08-07 01:02:25.630 ,2,1,0.,12.0,0.,12.0,0.,12.0,0.,12.0
1979-08-07 01:02:37.630 ,2,1,0.,12.0,0.,12.0,0.,12.0,0.,12.0
1979-08-07 01:02:49.630 ,2,0,0.,12.0,0.,12.0,0.,12.0,0.,12.0
1979-08-07 01:03:01.630 ,2,0,0.,12.0,0.,12.0,0.,12.0,0.,12.0
1979-08-07 01:03:13.630 ,3,1,0.,12.0,0.,12.0,0.,12.0,0.,12.0
1979-08-07 01:03:25.630 ,3,1,0.,12.0,0.,12.0,0.,12.0,0.,12.0
1979-08-07 01:03:37.630 ,0,0,0.,12.0,0.,12.0,0.,12.0,0.,12.0
1979-08-07 01:03:49.630 ,0,0,0.,12.0,0.,12.0,0.,12.0,0.,12.0
1979-08-07 01:04:01.630 ,4,1,0.,12.0,0.,12.0,0.,12.0,0.,12.0
1979-08-07 01:04:13.630 ,4,1,0.,12.0,0.,12.0,0.,12.0,0.,12.0
1979-08-07 01:04:25.630 ,4,0,0.,12.0,0.,12.0,0.,12.0,0.,12.0
1979-08-07 01:04:37.630 ,4,0,0.,12.0,0.,12.0,0.,12.0,0.,12.0
1979-08-07 01:04:49.630 ,5,1,0.,12.0,0.,12.0,0.,12.0,0.,12.0
1979-08-07 01:05:01.630 ,5,1,0.,12.0,0.,12.0,0.,12.0,0.,12.0
1979-08-07 01:05:13.630 ,5,0,0.,12.0,0.,12.0,0.,12.0,0.,12.0
1979-08-07 01:05:25.630 ,5,0,0.,12.0,0.,12.0,0.,12.0,0.,12.0
1979-08-07 01:05:37.630 ,6,1,0.,12.0,0.,12.0,0.,12.0,0.,12.0
1979-08-07 01:05:49.630 ,6,1,0.,12.0,0.,12.0,0.,12.0,0.,12.0
1979-08-07 01:06:01.630 ,6,0,0.,12.0,0.,12.0,0.,12.0,0.,12.0
1979-08-07 01:06:13.630 ,6,0,0.,12.0,0.,12.0,0.,12.0,0.,12.0
1979-08-07 01:06:25.630 ,7,0,0.,12.0,0.,12.0,0.,12.0,0.,12.0
1979-08-07 01:06:37.630 ,7,0,0.,12.0,0.,12.0,0.,12.0,0.,12.0
1979-08-07 01:06:49.630 ,7,0,0.,12.0,0.,12.0,0.,12.0,0.,12.0
1979-08-07 01:07:01.630 ,7,0,0.,12.0,0.,12.0,0.,12.0,0.,12.0
1979-08-07 01:07:13.630 ,4,1,0.,12.0,0.,12.0,0.,12.0,0.,12.0
1979-08-07 01:07:25.630 ,4,1,0.,12.0,0.,12.0,0.,12.0,0.,12.0
1979-08-07 01:07:37.630 ,0,1,0.,12.0,0.,12.0,0.,12.0,0.,12.0
1979-08-07 01:07:49.630 ,0,1,0.,12.0,0.,12.0,0.,12.0,0.,12.0
1979-08-07 01:08:01.630 ,3,1,0.,12.0,0.,12.0,0.,12.0,0.,12.0
1979-08-07 01:08:13.630 ,3,1,0.,12.0,0.,12.0,0.,12.0,0.,12.0
1979-08-07 01:08:25.630 ,7,1,0.,12.0,0.,12.0,0.,12.0,0.,12.0
1979-08-07 01:08:37.630 ,7,1,0.,12.0,0.,12.0,0.,12.0,0.,12.0
1979-08-07 01:08:49.630 ,4,1,0.,12.0,0.,12.0,0.,12.0,0.,12.0
1979-08-07 01:09:01.630 ,4,1,0.,12.0,0.,12.0,0.,12.0,0.,12.0
1979-08-07 01:09:13.630 ,0,1,0.,12.0,0.,12.0,0.,12.0,0.,12.0
1979-08-07 01:09:25.630 ,0,1,0.,12.0,0.,12.0,0.,12.0,0.,12.0
1979-08-07 01:09:37.630 ,3,1,0.,12.0,0.,12.0,0.,12.0,0.,12.0
1979-08-07 01:09:49.630 ,3,1,0.,12.0,0.,12.0,0.,12.0,0.,12.0
1979-08-07 01:10:01.630 ,7,1,0.,12.0,0.,12.0,0.,12.0,0.,12.0
1979-08-07 01:10:13.630 ,7,1,0.,12.0,0.,12.0,0.,12.0,0.,12.0
1979-08-07 01:10:25.630 ,4,1,0.,12.0,0.,12.0,0.,12.0,0.,12.0
1979-08-07 01:10:37.630 ,4,1,0.,12.0,0.,12.0,0.,12.0,0.,12.0
1979-08-07 01:10:49.630 ,0,1,0.,12.0,0.,12.0,0.,12.0,0.,12.0
1979-08-07 01:11:01.630 ,0,1,0.,12.0,0.,12.0,0.,12.0,0.,12.0
1979-08-07 01:11:13.630 ,3,1,0.,12.0,0.,12.0,0.,12.0,0.,12.0
1979-08-07 01:11:25.630 ,3,1,0.,12.0,0.,12.0,0.,12.0,0.,12.0
1979-08-07 01:11:37.630 ,7,1,0.,12.0,0.,12.0,0.,12.0,0.,12.0
1979-08-07 01:11:49.630 ,7,1,0.,12.0,0.,12.0,0.,12.0,0.,12.0
1979-08-07 01:12:01.630 ,4,1,0.,12.0,0.,12.0,0.,12.0,0.,12.0
1979-08-07 01:12:13.630 ,4,1,0.,12.0,0.,12.0,0.,12.0,0.,12.0
1979-08-07 01:12:25.630 ,0,1,0.,12.0,0.,12.0,0.,12.0,0.,12.0
1979-08-07 01:12:37.630 ,0,1,0.,12.0,0.,12.0,0.,12.0,0.,12.0
1979-08-07 01:12:49.630 ,3,1,0.,12.0,0.,12.0,0.,12.0,0.,12.0
1979-08-07 01:13:01.630 ,3,1,0.,12.0,0.,12.0,0.,12.0,0.,12.0
1979-08-07 01:13:13.630 ,7,1,0.,12.0,0.,12.0,0.,12.0,0.,12.0
1979-08-07 01:13:25.630 ,7,1,0.,12.0,0.,12.0,0.,12.0,0.,12.0
1979-08-07 01:13:37.630 ,4,1,0.,12.0,0.,12.0,0.,12.0,0.,12.0
1979-08-07 01:13:49.630 ,4,1,0.,12.0,0.,12.0,0.,12.0,0.,12.0
1979-08-07 01:14:01.630 ,0,1,0.,12.0,0.,12.0,0.,12.0,0.,12.0
1979-08-07 01:14:13.630 ,0,1,0.,12.0,0.,12.0,0.,12.0,0.,12.0
1979-08-07 01:14:25.630 ,3,1,0.,12.0,0.,12.0,0.,12.0,0.,12.0
1979-08-07 01:14:37.630 ,3,1,0.,12.0,0.,12.0,0.,12.0,0.,12.0
1979-08-07 01:14:49.630 ,7,1,0.,12.0,0.,12.0,0.,12.0,0.,12.0
1979-08-07 01:15:01.630 ,7,1,0.,12.0,0.,12.0,0.,12.0,0.,12.0
1979-08-07 01:15:13.630 ,4,1,0.,12.0,0.,12.0,0.,12.0,0.,12.0
1979-08-07 01:15:25.630 ,4,1,0.,12.0,0.,12.0,0.,12.0,0.,12.0
1979-08-07 01:15:37.630 ,0,1,0.,12.0,0.,12.0,0.,12.0,0.,12.0
1979-08-07 01:15:49.630 ,0,1,0.,12.0,0.,12.0,0.,12.0,0.,12.0
1979-08-07 01:16:01.630 ,3,1,0.,12.0,0.,12.0,0.,12.0,0.,12.0
1979-08-07 01:16:13.630 ,3,1,0.,12.0,0.,12.0,0.,12.0,0.,12.0
1979-08-07 01:16:25.630 ,7,1,0.,12.0,0.,12.0,0.,12.0,0.,12.0
1979-08-07 01:16:37.630 ,7,1,0.,12.0,0.,12.0,0.,12.0,0.,12.0
1979-08-07 01:16:49.630 ,4,1,0.,12.0,0.,12.0,0.,12.0,0.,12.0
1979-08-07 01:17:01.630 ,4,1,0.,12.0,0.,12.0,0.,12.0,0.,12.0